Location: Unspecified
(0.0000°N, 0.0000°E)
Time: 23:29:44
(UTC+00:00)

deb Explorer IX - Pass Details

Date: 26 June 2019
Orbit: 544 x 1107 km, 38.8° (Epoch: 17 October)

Event Time Altitude Azimuth Distance (km) Brightness Sun altitude
Rises 20:46:05 0° 300° (WNW) 3,687 ? -36.9°
Reaches altitude 10° 20:49:00 10° 295° (WNW) 2,657 ? -37.5°
Enters shadow 20:52:33 30° 275° (W) 1,529 ? -38.3°
